419  
ASUS42 KCHS 160512  
RWRCHS  
 
REGIONAL WEATHER ROUNDUP  
NATIONAL WEATHER SERVICE CHARLESTON SC  
1200 AM EST SAT DEC 16 2017  
 
NOTE: "FAIR" INDICATES FEW OR NO CLOUDS BELOW 12,000 FEET WITH NO  
SIGNIFICANT WEATHER AND/OR S TO VISIBILITY
.  
 
NOT ALL STATIONS ARE QUALITY CONTROLLED. USE DATA WITH CAUTION,  
ESPECIALLY DEWPOINT OBSERVATIONS.  
 
SCZ027-030-031-034>040-042>050-160600-   
..SOUTHEAST SOUTH CAROLINA
 
 
 
CITY SKY/WX TMP DP RH WIND PRES REMARKS
 
N CHARLESTON CLOUDY 49 31 49 NW10 30.14R  
WATERFRONT PRK N/A 52 33 48 NW6 29.98R  
MOUNT PLEASANT FAIR 52 34 50 NW7 30.14R  
JOHNS ISLAND FAIR 50 32 50 NW12 30.14R  
PINOPOLIS N/A 50 36 57 NW10 30.05R  
MONCKS CORNER FAIR 45 28 53 NW3 30.14R  
SUMMERVILLE FAIR 45 30 57 NW6 30.16R  
BEAUFORT MCAS MOCLDY 50 31 48 NW9 30.17R  
BEAUFORT ARPT FAIR 50 32 50 NW13 30.16R  
HILTON HEAD IS CLOUDY 50 30 46 VRB5G13 30.16R  
WALTERBORO PTCLDY 45 30 57 NW8 30.17R  
ALLENDALE FAIR 41 27 56 CALM 30.17S  
   
..SOUTHERN MIDLANDS AND PEE DEE
 
 
 
CITY SKY/WX TMP DP RH WIND PRES REMARKS
 
GEORGETOWN FAIR 46 34 61 NW3 30.14R  
KINGSTREE FAIR 41 32 70 CALM 30.14R  
ORANGEBURG CLEAR 41 26 55 NW7 30.17R  
BARNWELL N/A 39 28 65 CALM 30.18R  
AIKEN FAIR 32 27 80 W5 30.20R WCI 27  
MANNING FAIR 45 -29 4 MISG 30.15R  
COLUMBIA CLEAR 36 28 73 W7 30.16R WCI 30  
SUMTER CLEAR 42 28 57 W7 30.14R  
FLORENCE CLEAR 37 32 82 CALM 30.15R  
MYRTLE BEACH CLOUDY 46 34 62 N8 30.14R  
N MYRTLE BEACH CLOUDY 45 34 65 N3 30.12R  
 

 
 
GAZ063-065-086>088-099>101-113>116-118-119-134>141-150-160600-   
..SOUTHEAST GEORGIA
 
 
 
CITY SKY/WX TMP DP RH WIND PRES REMARKS
 
SAVANNAH ARPT CLOUDY 49 31 49 NW7 30.18R  
HUNTER AAF CLOUDY 50 31 48 NW8 N/A  
FORT STEWART CLOUDY 49 31 49 W6 N/A  
STATESBORO MOCLDY 44 24 45 NW8 30.19S  
SYLVANIA PTCLDY 43 29 59 NW7 30.19S  
CLAXTON FAIR 48 30 50 W8 30.20R  
   
..CSRA, CENTRAL AND FAR SOUTHEAST GEORGIA
 
 
 
CITY SKY/WX TMP DP RH WIND PRES REMARKS
 
THOMSON CLEAR 34 23 65 N5 30.23S WCI 30  
AUGUSTA-BUSH CLEAR 37 25 61 NW6 30.19R WCI 32  
AUGUSTA-DANIEL CLEAR 39 24 55 W5 30.19R WCI 36  
SWAINSBORO FAIR 37 28 70 W5 30.21R WCI 34  
VIDALIA CLOUDY 45 30 57 NW6 30.20S  
EASTMAN FAIR 40 20 45 CALM 30.25S  
HAZLEHURST FAIR 47 17 30 NW3 30.20S  
ALMA CLOUDY 48 32 53 NW9 30.20S  
WAYCROSS MOCLDY 49 31 50 N6 30.20F  
JESUP FAIR 52 32 46 NW8 30.20R  
BAXLEY CLOUDY 45 30 57 NW10 30.20R  
BRUNSWICK CLOUDY 52 37 58 NW6 30.19R  
SAINT SIMONS CLOUDY 53 42 66 NW8 30.17R  
 

 
 
SCZ027-028-034-036>038-045-046-048>050-GAZ119-141-160600-   
..LAKE AND SUPPLEMENTAL COASTAL OBSERVATIONS
 
 
 
STATION/POSITION TIME TEMP WIND PRES WAVE SWELL
 
AIR SEA DIR/SP/G HT/PER HT/PER/DIR  
(UTC) (F) (DEG/KT/KT) (MB) (FT/S) (FT/S/D)  
WINYAH BAY NOT AVBL  
LAKE MURRAY 0420 42 280/ 7/ 13 1020.3  
ACE BASIN NERRS 0345 51 290/ 3 1020.0  
FORT PULASKI 0448 51 53 310/ 13/ 16 1021.6R  
SAPELO ISLAND 0400 53 300/ 8 1021.0  
 

 
 
ANZ835-935-AMZ111-154-330-350-352-354-370-450-454-472-160600-   
..C-MAN AND BUOY OBSERVATIONS
 
 
 
STATION/POSITION TIME TEMP WIND PRES WAVE SWELL
 
AIR SEA DIR/SP/G HT/PER HT/PER/DIR  
(UTC) (F) (DEG/KT/KT) (MB) (FT/S) (FT/S/D)  
BUOY 41004 0450 57 72 310/ 17/ 21 1019.3R 4/ 5  
BUOY 41008 0450 54 58 290/ 17/ 19 1021.3R 2/ 3  
FOLLY BEACH CMAN 0400 52 300/ 6/ 9 1020.8R  
CAPERS NEARSHORE 0408 51 56 310/ 14/ 17 1019.6R  
 
 
STATION/POSITION TIME TEMP WIND PRES WAVE SWELL
 
AIR SEA DIR/SP/G HT/PER HT/PER/DIR  
(UTC) (F) (DEG/KT/KT) (MB) (FT/S) (FT/S/D)  
5E ST. MARYS GA 0430 62 N/A 2/ 3  
FRYING PAN BUOY 0450 54 68 350/ 16/ 19 1018.8R 6/ 7  
BUOY 41025 0450 47 73 320/ 23/ 29 1018.0R 7/ 5  
CAPE LOOKOUT NC 0400 330/ 15/ 20 1018.8R  
BUOY 41002 0450 71 75 290/ 25/ 29 1015.9F 8/ 7 2/330/11  
BUOY 41010 NOT AVBL  
ST AUGUSTINE FL 0500 57 64 280/ 3/ 4 1021.5F  
 

 
 
 
CLICK HERE TO GO TO PREVIOUS BULLETINS.

The Nexlab SC Page
The Nexlab GA Page Main Text Page